Location: Las Navas
(40.6024°N, 4.3345°W)
Time: 08:24:27
(UTC+00:00)

ISS - Pass Details

Date: 03 April 2020
Orbit: 417 x 420 km, 51.6° (Epoch: 30 May)

Event Time Altitude Azimuth Distance (km) Brightness Sun altitude
Rises 20:30:24 0° 304° (NW) 2,364 1.6 -19.9°
Reaches altitude 10° 20:32:30 10° 302° (WNW) 1,497 0.2 -20.3°
Enters shadow 20:35:42 66° 239° (WSW) 459 -3.6 -20.8°
